Location: Donald C. Martin Observatory
(38.3885°N, 82.3916°W)
Time: 00:56:28
(UTC-05:00)

Cosmos 1484 Rocket - Visible Passes

Search period start: 25 February 2018 00:00
Search period end: 07 March 2018 00:00
Orbit: 507 x 561 km, 97.3° (Epoch: 24 February)

Date Brightness Start Highest point End Pass type
(mag) Time Alt. Az. Time Alt. Az. Time Alt. Az.
25 Feb 5.8 05:42:40 10° NE 05:45:40 20° E 05:48:39 10° SE visible
26 Feb 6.1 05:33:59 10° NE 05:36:29 16° E 05:38:58 10° SE visible
27 Feb 6.3 05:25:35 10° ENE 05:27:17 12° E 05:28:58 10° ESE visible
01 Mar 6.6 18:57:32 10° WSW 18:59:10 12° W 19:00:49 10° WNW visible
02 Mar 3.0 06:30:34 10° NNE 06:34:36 82° ESE 06:38:36 10° S visible
02 Mar 6.3 18:47:32 10° SW 18:49:57 16° W 18:52:24 10° NW visible
03 Mar 3.5 06:21:28 10° NNE 06:25:28 63° E 06:29:26 10° S visible
04 Mar 4.1 06:12:25 10° NNE 06:16:19 47° E 06:20:11 10° S visible
05 Mar 4.6 06:03:25 10° NNE 06:07:10 36° E 06:10:52 10° SSE visible
06 Mar 5.2 05:54:28 10° NE 05:58:00 28° E 06:01:28 10° SSE visible
